Location: Detroit
(42.3310°N, 83.0460°W)
Time: 00:59:02
(UTC-04:00)

A-11 Canister half - Pass Details

Date: 11 February 2023
Orbit: 1526 x 1682 km, 47.3° (Epoch: 20 March)

Event Time Altitude Azimuth Distance (km) Brightness Sun altitude
Rises 09:04:41 0° 293° (WNW) 4,681 10.9 14.1°
Reaches altitude 10° 09:07:43 10° 293° (WNW) 3,702 10.5 14.6°
Maximum altitude 09:17:06 89° 25° (NNE) 1,555 9.4 16.0°
Drops below altitude 10° 09:26:42 10° 116° (ESE) 3,785 13.1 17.4°
Sets 09:29:50 0° 116° (ESE) 4,790 13.1 17.9°
